Das Wetter in  D-61279 Heinzenberg / Taunus





Wetter Minimum- & Maximum-Werte im August 2018

Standort: Heinzenberg / Taunus - Höhe 297 m         8° 24' 1" Ost 50° 21' 51" Nord
(   3-stündige Aktualisierung    letzte Aktualisierung um 20:46 am 31.08.2018  )


Messgrösse

Minimum

Maximum

Durchschnitt

Temperatur West /
Luftfeuchte West
Anklicken für Monats-Diagramm

5,1 °C

07:27
26.08.2018

29 %

17:47
03.08.2018

37,8 °C

16:07
03.08.2018

90 %

08:34
15.08.2018

Temp

20,3 °C

Feuchte

63 %

Temperatur Ost /
Luftfeuchte Ost
Anklicken für Monats-Diagramm

5,2 °C

06:57
26.08.2018

--

--
--

37,8 °C

16:02
03.08.2018

--

--
--

20,6 °C

--

Luftdruck Anklicken für Monats-Diagramm

1004,7 hPa

18:37
13.08.2018

1023,1 hPa

23:52
31.08.2018

1015,0 hPa

Taupunkt

2,6 °C

07:27
26.08.2018

20,4 °C

14:16
02.08.2018

12,3 °C

Windchill
( gefühlte Temperatur )

3,8 °C

10:41
25.08.2018

37,8 °C

16:07
03.08.2018

19,5 °C

Windgeschwindigkeit /
Windrichtung
Anklicken für Monats-Diagramm

---

84,2 km/h / W-SW

15:28
09.08.2018

6,7 km/h
W-SW

Helligkeit /
Sonnenschein
Anklicken für Monats-Diagramm
Anklicken für Monats-Diagramm

Sonnenschein:

238:26 Stunden

Max: 13:05 Std am
03.08.2018

114 klux

14:11
25.08.2018

38 klux

Solarstrahlung Anklicken für Monats-Diagramm

---

780 W/m²

14:11
25.08.2018

278 W/m²

Regenmenge
    August 2018
Anklicken für Monats-Diagramm

Insgesamt 26,4 l/m²

in 21:56 Stunden
an 13 Tagen

9,7 l/m²

08:52
13.08.2018

Gesamtmenge

26,4 l/m²

Regen-Tage
    August 2018
Anklicken für Monats-Diagramm

>   0 mm/Tag

>   2 mm/Tag

>   5 mm/Tag

> 10 mm/Tag

> 20 mm/Tag

13 Tage     
5 Tage     
  1 Tag     
0 Tage     
0 Tage     

Eisige Tage August 2018 / 2017

Tmin ≤ -10°C     

0 Tage

/

0 Tage

Eistage August 2018 / 2017

Tmax <     0°C     

0 Tage

/

0 Tage

Frosttage August 2018 / 2017

Tmin ≤     0°C     

0 Tage

/

0 Tage

Kalte Tage August 2018 / 2017

Tmax <   10°C     

0 Tage

/

0 Tage

Warme Tage August 2018 / 2017

Tmax ≥   20°C     

30 Tage

/

26 Tage

Sommertage August 2018 / 2017

Tmax ≥   25°C     

22 Tage

/

17 Tage

Heisse Tage August 2018 / 2017

Tmax ≥   30°C     

14 Tage

/

  1 Tag


Monatsdiagramm August 2018

Die Kurven zeigen den Durchschnittswert des jeweiligen Tages an


Wetter-Monatsübersicht August 2018
Datum
  Temperatur
   Luftdruck
   Wind
  Regen
   Luftfeuchte
   Helligkeit

Sonnen-
schein

Ø
Temp.

Min.
Temp.

Max.
Temp.

Ø
Luftdruck

Min.
Luftdruck

Max.
Luftdruck

Ø-Geschw.
Haupt-Richtg.

Max.
Wind

Menge /
Dauer

Ø
Feuchte

Min.
Feuchte

Max.
Feuchte

Ø
Helligkeit

Max.
Helligkeit

1.
August
22,8 °C18,8 °C
07:00
29,9 °C
14:50
1018,0 hPa1016,3 hPa
00:00
1019,9 hPa
23:51
3,0 km/h
NW
29,3 km/h
16:10  
1,5 l/m²
2:15 Stunden
68 %49 %
14:55
82 %
07:45
30,2 klux100,0 klux
14:40
4:35 Std 
2.
August
25,1 °C15,8 °C
06:51
36,0 °C
16:36
1018,9 hPa1016,2 hPa
19:06
1020,5 hPa
10:16
1,3 km/h
NW
13,0 km/h
18:01  
---
64 %35 %
16:51
88 %
08:21
46 klux94 klux
14:41
11:25 Std 
3.
August
27,3 °C17,1 °C
06:42
37,8 °C
16:07
1017,6 hPa1013,7 hPa
18:42
1020,1 hPa
06:42
1,7 km/h
SO
14,3 km/h
16:22  
---
54 %29 %
17:47
81 %
06:52
49,1 klux88,8 klux
12:47
13:05 Std 
4.
August
26,7 °C18,0 °C
05:58
37,2 °C
17:18
1015,1 hPa1012,7 hPa
17:18
1016,9 hPa
07:38
5,3 km/h
NW
24,8 km/h
18:58  
---
50 %31 %
18:23
69 %
07:53
42,5 klux94,6 klux
12:48
9:45 Std 
5.
August
24,9 °C17,2 °C
06:54
33,8 °C
18:24
1017,5 hPa1015,2 hPa
18:24
1019,6 hPa
09:29
3,0 km/h
NW
17,7 km/h
15:44  
---
53 %33 %
17:09
77 %
08:04
46,8 klux95,6 klux
13:29
11:11 Std 
6.
August
24,6 °C12,6 °C
06:45
34,8 °C
18:20
1014,4 hPa1008,9 hPa
19:25
1019,2 hPa
02:55
4,0 km/h
O-SO
21,3 km/h
15:20  
---
50 %32 %
18:20
74 %
06:50
46,8 klux88,8 klux
15:15
12:10 Std 
7.
August
26,1 °C16,4 °C
06:26
36,3 °C
15:31
1008,6 hPa1005,6 hPa
15:31
1011,3 hPa
00:51
8,5 km/h
W-SW
35,9 km/h
13:41  
0,5 l/m²
41 Minuten
53 %34 %
14:01
73 %
23:27
41,9 klux92,6 klux
14:21
8:50 Std 
8.
August
23,9 °C18,8 °C
04:32
30,4 °C
16:42
1010,0 hPa1006,3 hPa
01:12
1013,6 hPa
23:58
10,7 km/h
W
43,8 km/h
13:52  
3,0 l/m²
1:40 Stunden
64 %40 %
16:47
85 %
05:02
41,7 klux106,0 klux
13:02
9:10 Std 
9.
August
21,3 °C16,0 °C
06:23
33,2 °C
14:08
1011,1 hPa1005,9 hPa
14:08
1014,0 hPa
03:33
11,0 km/h
W-SW
84,2 km/h
15:28  
3,3 l/m²
1:25 Stunden
71 %38 %
14:23
83 %
07:13
30 klux94 klux
14:08
5:40 Std 
10.
August
18,4 °C13,2 °C
06:24
24,4 °C
17:49
1019,8 hPa1013,7 hPa
00:04
1022,3 hPa
09:39
18,0 km/h
W
38,5 km/h
16:09  
---
59 %37 %
17:49
76 %
05:14
40,5 klux105,0 klux
16:04
8:24 Std 
11.
August
17,9 °C11,3 °C
03:15
25,6 °C
16:50
1020,3 hPa1018,3 hPa
19:10
1021,4 hPa
08:05
11,4 km/h
W
31,5 km/h
13:55  
---
54 %33 %
17:45
69 %
03:10
46 klux102 klux
12:20
9:47 Std 
12.
August
18,5 °C7,6 °C
06:56
29,9 °C
17:06
1014,8 hPa1008,8 hPa
19:36
1020,9 hPa
02:01
4,5 km/h
W-SW
27,9 km/h
14:16  
---
53 %29 %
17:41
77 %
07:51
46 klux89 klux
13:31
11:10 Std 
13.
August
16,8 °C11,8 °C
06:27
25,2 °C
18:37
1007,5 hPa1004,7 hPa
18:37
1010,0 hPa
00:37
8,6 km/h
W-SW
39,4 km/h
08:17  
9,7 l/m²
4:15 Stunden
73 %54 %
18:42
87 %
11:02
28,0 klux111,0 klux
14:22
3:50 Std 
14.
August
18,0 °C14,8 °C
02:53
24,4 °C
17:53
1012,3 hPa1008,9 hPa
00:03
1017,1 hPa
23:54
10,9 km/h
W-NW
31,1 km/h
17:08  
0,6 l/m²
1:10 Stunden
78 %57 %
17:58
87 %
04:58
28 klux113 klux
14:48
2:35 Std 
15.
August
18,4 °C13,6 °C
05:29
24,9 °C
18:44
1017,9 hPa1017,1 hPa
00:04
1019,1 hPa
09:39
2,0 km/h
NW
19,6 km/h
14:14  
---
74 %52 %
18:49
90 %
08:34
28 klux99 klux
13:49
3:35 Std 
16.
August
21,4 °C11,3 °C
06:34
32,6 °C
18:14
1014,4 hPa1010,1 hPa
18:14
1018,6 hPa
02:49
2,7 km/h
W-SW
20,0 km/h
14:04  
---
62 %33 %
18:24
88 %
08:59
49 klux84 klux
13:54
12:50 Std 
17.
August
20,6 °C13,2 °C
06:15
31,4 °C
15:25
1013,7 hPa1011,8 hPa
00:00
1019,0 hPa
23:45
6,8 km/h
NW
29,9 km/h
16:55  
---
66 %42 %
15:25
81 %
08:05
43,6 klux91,1 klux
15:15
9:40 Std 
18.
August
20,9 °C14,2 °C
07:15
28,6 °C
16:30
1019,3 hPa1017,8 hPa
16:30
1021,4 hPa
23:56
4,6 km/h
NW
22,8 km/h
14:55  
---
58 %31 %
18:00
81 %
07:10
46,7 klux82,3 klux
13:45
11:35 Std 
19.
August
20,6 °C10,5 °C
07:26
31,5 °C
16:36
1018,8 hPa1014,5 hPa
18:31
1022,0 hPa
07:06
5,8 km/h
W-NW
27,9 km/h
17:41  
---
55 %31 %
16:26
78 %
08:21
46,4 klux82,0 klux
13:26
12:00 Std 
20.
August
20,4 °C14,6 °C
07:16
28,2 °C
14:06
1017,5 hPa1016,3 hPa
19:36
1018,8 hPa
23:57
4,5 km/h
NW
20,8 km/h
13:56  
---
66 %49 %
14:06
81 %
08:41
33,5 klux101,0 klux
12:41
3:15 Std 
21.
August
22,8 °C17,1 °C
07:17
29,9 °C
13:47
1017,7 hPa1014,7 hPa
18:57
1019,9 hPa
08:57
1,1 km/h
NW
15,0 km/h
13:17  
---
63 %42 %
16:17
82 %
08:07
35 klux96 klux
13:42
5:55 Std 
22.
August
23,7 °C14,0 °C
06:48
34,1 °C
16:58
1014,6 hPa1011,0 hPa
17:28
1018,0 hPa
01:58
2,9 km/h
W-NW
21,5 km/h
15:53  
---
57 %33 %
16:58
81 %
07:58
41,3 klux90,2 klux
14:03
10:05 Std 
23.
August
23,2 °C15,2 °C
06:59
32,5 °C
15:49
1010,6 hPa1007,0 hPa
17:19
1013,8 hPa
03:04
7,2 km/h
W-NW
37,3 km/h
21:29  
0,3 l/m²
30 Minuten
60 %32 %
15:39
80 %
08:29
43,8 klux92,4 klux
13:34
10:35 Std 
24.
August
17,9 °C14,8 °C
23:56
22,8 °C
14:15
1009,9 hPa1008,7 hPa
03:30
1011,9 hPa
11:40
9,4 km/h
NW
27,1 km/h
13:10  
0,3 l/m²
55 Minuten
67 %47 %
17:40
85 %
07:20
26,4 klux99,2 klux
13:15
2:40 Std 
25.
August
13,4 °C9,2 °C
23:52
17,3 °C
14:21
1010,9 hPa1008,2 hPa
08:21
1014,9 hPa
23:52
13,5 km/h
W-SW
37,6 km/h
19:26  
2,7 l/m²
3:54 Stunden
66 %53 %
14:26
84 %
10:21
26 klux114 klux
14:11
2:34 Std 
26.
August
13,2 °C5,1 °C
07:27
22,4 °C
16:47
1015,0 hPa1011,7 hPa
20:02
1018,2 hPa
09:07
5,9 km/h
W-SW
32,3 km/h
17:42  
---
10 Minuten
63 %37 %
17:42
86 %
09:07
37 klux94 klux
14:27
7:05 Std 
27.
August
16,4 °C11,8 °C
00:38
21,5 °C
18:13
1012,0 hPa1010,2 hPa
05:53
1016,3 hPa
23:53
12,9 km/h
W-SW
37,4 km/h
12:28  
0,8 l/m²
2:00 Stunden
67 %50 %
03:33
78 %
10:38
24,5 klux90,6 klux
13:23
1:55 Std 
28.
August
17,2 °C8,7 °C
07:18
27,5 °C
16:08
1017,3 hPa1014,8 hPa
16:58
1020,1 hPa
07:48
2,2 km/h
SO
18,3 km/h
15:43  
---
64 %39 %
17:09
85 %
08:18
37,6 klux81,7 klux
13:23
8:25 Std 
29.
August
17,5 °C8,3 °C
06:59
30,9 °C
14:54
1012,1 hPa1008,2 hPa
14:54
1015,8 hPa
01:54
5,0 km/h
SO
40,0 km/h
17:14  
3,6 l/m²
2:41 Stunden
70 %39 %
14:34
86 %
23:05
34,2 klux78,7 klux
13:39
6:45 Std 
30.
August
16,3 °C10,6 °C
23:56
21,2 °C
16:55
1017,2 hPa1011,8 hPa
00:05
1020,9 hPa
23:56
15,8 km/h
W-NW
43,3 km/h
03:40  
---
20 Minuten
74 %48 %
18:45
90 %
06:30
26,9 klux90,6 klux
13:30
3:50 Std 
31.
August
14,3 °C8,8 °C
06:51
23,1 °C
14:41
1020,2 hPa1018,4 hPa
14:41
1023,1 hPa
23:52
3,1 km/h
NO
16,1 km/h
14:46  
---
66 %43 %
18:01
84 %
07:51
32,0 klux88,6 klux
14:41
4:05 Std 



August
2018

Temperatur

  

Luftdruck

  

Wind

  

Regen

  

Luftfeuchte

  

Helligkeit

Sonnen-
schein

Ø

Min

Max

Ø

Min

Max

Ø

Max

Max

Ø

Min

Max

Ø

Max

Max

20,3 °C

5,1 °C

07:27 Uhr
26.08.2018

37,8 °C

16:07 Uhr
03.08.2018

1015,0 hPa

1004,7 hPa

18:37 Uhr
13.08.2018

1023,1 hPa

23:52 Uhr
31.08.2018

6,7 km/h

W-SW

84,2 km/h

15:28 Uhr
09.08.2018

9,7 l/m²

4:15 Stunden
13.08.2018

63 %

29 %

17:47 Uhr
03.08.2018

90 %

08:34 Uhr
15.08.2018

37,9 klux

114,0 klux

14:11 Uhr
25.08.2018

13:05 Std

am
03.08.2018

Gesamt

Gesamt

26,4 l/m²

13 Tage
21:56 h

238:26 Std


Wetter-Diagramme August 2018     Heinzenberg / Taunus   
TemperaturLuftfeuchte
SolarstrahlungLuftdruck
HelligkeitSonnenschein
RegenmengeRegendauer
Wind-GeschwindigkeitWind-Richtung